Temp
-3 -4 -4 -4 -4 -3 -4 -4 -5 -3 -4 -4 -4 -4 -4 -4 -4 -4 -5 -5 -4 -5 -5 -5 -6 -6 -6 -6 -6 -6 -6 -7 -7 -7 -7 -8 -8 -8 -8 -8 -8 -8 -8 -8 -8 -8 -8 -8 -8
-4 -4 -4 -4 -4 -5 -5 -4 -4 -3 -4 -3 -4 -4 -4 -4 -4 -4 -5 -5 -4 -5 -5 -5 -6 -6 -6 -6 -6 -6 -6 -7 -7 -7 -7 -8 -8 -8 -8 -8 -8 -8 -8 -8 -8 -8 -8 -8 -8
-4 -4 -4 -3 -4 -4 -5 -4 -4 -4 -4 -4 -4 -4 -3 -4 -4 -4 -5 -5 -5 -5 -5 -5 -6 -6 -6 -6 -6 -6 -6 -7 -7 -7 -7 -7 -8 -8 -8 -8 -7 -7 -7 -8 -8 -8 -8 -8 -8
-4 -4 -5 -5 -5 -5 -5 -4 -4 -4 -3 -4 -4 -4 -4 -3 -4 -5 -5 -5 -5 -5 -5 -5 -6 -6 -6 -6 -6 -6 -7 -7 -7 -7 -7 -7 -7 -7 -7 -7 -7 -7 -7 -7 -8 -8 -8 -8 -8
-4 -4 -5 -4 -5 -4 -6 -4 -4 -4 -3 -4 -4 -4 -3 -3 -4 -5 -5 -5 -5 -5 -5 -5 -6 -6 -6 -6 -6 -6 -7 -7 -7 -7 -7 -7 -7 -7 -7 -7 -7 -7 -7 -8 -8 -8 -8 -7 -7
-3 -4 -4 -5 -5 -5 -7 -4 -4 -3 -3 -4 -4 -4 -4 -4 -4 -4 -4 -5 -5 -5 -5 -5 -6 -6 -6 -6 -6 -6 -7 -7 -7 -7 -7 -7 -7 -7 -7 -7 -7 -7 -7 -7 -7 -7 -8 -8 -7
-3 -4 -3 -5 -5 -6 -6 -6 -6 -3 -3 -3 -4 -4 -4 -4 -4 -4 -4 -5 -5 -5 -5 -6 -6 -6 -6 -6 -6 -7 -7 -7 -7 -7 -7 -7 -7 -7 -7 -7 -7 -7 -7 -7 -7 -7 -7 -7 -7
-4 -4 -4 -5 -5 -6 -5 -4 -6 -3 -3 -4 -4 -4 -4 -4 -4 -5 -5 -4 -5 -5 -5 -5 -6 -6 -6 -6 -6 -6 -6 -7 -7 -7 -6 -6 -6 -7 -6 -6 -6 -6 -6 -7 -7 -7 -7 -7 -7
-5 -4 -5 -5 -5 -6 -5 -4 -4 -4 -4 -4 -4 -4 -5 -4 -4 -5 -5 -5 -5 -5 -5 -5 -6 -6 -6 -6 -6 -6 -6 -6 -7 -7 -6 -6 -6 -7 -7 -6 -6 -6 -6 -6 -7 -7 -7 -7 -7
-5 -4 -6 -5 -5 -6 -5 -4 -4 -3 -4 -4 -4 -4 -5 -5 -5 -5 -5 -5 -5 -5 -5 -6 -5 -6 -6 -6 -6 -6 -6 -6 -7 -6 -7 -7 -7 -7 -7 -6 -6 -6 -6 -6 -7 -7 -7 -7 -7
-4 -5 -5 -6 -5 -5 -7 -6 -6 -3 -4 -4 -4 -5 -5 -5 -5 -5 -5 -5 -5 -5 -5 -6 -6 -6 -6 -6 -6 -6 -6 -6 -6 -6 -7 -4 -7 -7 -6 -7 -7 -7 -7 -6 -7 -7 -7 -7 -7
-5 -6 -6 -6 -4 -6 -7 -6 -7 -4 -3 -4 -4 -5 -5 -5 -5 -5 -5 -5 -5 -5 -6 -5 -5 -6 -6 -6 -5 -6 -6 -6 -6 -6 -6 -7 -7 -6 -7 -7 -7 -6 -6 -6 -6 -6 -6 -6 -7
-5 -6 -7 -7 -6 -7 -6 -5 -6 -5 -4 -4 -4 -5 -5 -5 -6 -6 -5 -5 -5 -5 -6 -5 -5 -6 -6 -6 -6 -6 -6 -6 -6 -6 -6 -6 -6 -6 -7 -6 -7 -6 -6 -6 -6 -6 -6 -6 -6
-6 -7 -7 -6 -5 -8 -7 -6 -6 -6 -5 -4 -4 -5 -5 -6 -6 -6 -6 -6 -5 -5 -5 -6 -5 -6 -6 -5 -5 -6 -6 -5 -5 -5 -6 -6 -6 -6 -6 -6 -6 -6 -6 -6 -5 -5 -6 -6 -7
-6 -8 -8 -6 -7 -7 -6 -7 -5 -6 -6 -6 -4 -5 -5 -5 -6 -6 -6 -6 -6 -6 -5 -5 -5 -5 -6 -5 -5 -6 -6 -6 -5 -5 -5 -5 -6 -5 -5 -6 -6 -6 -5 -5 -5 -6 -6 -7 -7
-5 -8 -8 -8 -6 -8 -6 -7 -6 -6 -5 -6 -5 -5 -5 -5 -5 -5 -5 -5 -5 -5 -5 -5 -5 -5 -6 -6 -6 -6 -6 -5 -5 -5 -5 -6 -6 -6 -6 -6 -6 -6 -6 -5 -6 -6 -6 -7 -6
-4 -5 -7 -7 -7 -7 -7 -7 -5 -6 -4 -6 -5 -5 -5 -5 -5 -5 -5 -5 -5 -5 -5 -5 -5 -6 -6 -5 -5 -6 -5 -5 -5 -5 -5 -6 -6 -6 -6 -6 -6 -5 -6 -6 -6 -6 -6 -7 -7
-4 -4 -6 -8 -7 -7 -7 -7 -5 -7 -5 -6 -6 -5 -5 -5 -5 -5 -5 -5 -5 -5 -5 -5 -5 -5 -5 -5 -5 -5 -5 -5 -5 -5 -5 -6 -5 -5 -6 -5 -5 -5 -5 -6 -6 -6 -6 -6 -6
-5 -7 -6 -8 -7 -7 -7 -7 -7 -6 -6 -6 -7 -6 -6 -5 -5 -5 -5 -5 -5 -5 -5 -5 -5 -5 -6 -6 -5 -5 -5 -5 -5 -5 -5 -5 -5 -5 -6 -5 -5 -5 -5 -6 -6 -6 -7 -7 -6
-5 -6 -8 -7 -7 -7 -7 -7 -7 -6 -6 -5 -7 -6 -6 -5 -6 -6 -6 -5 -5 -5 -5 -5 -5 -5 -6 -6 -5 -5 -5 -5 -6 -5 -5 -5 -5 -5 -6 -6 -5 -5 -5 -5 -5 -6 -6 -6 -6
-5 -6 -7 -7 -8 -7 -6 -7 -7 -7 -5 -5 -4 -5 -5 -6 -6 -6 -5 -5 -5 -5 -5 -5 -5 -5 -5 -5 -5 -5 -5 -5 -6 -5 -5 -5 -6 -6 -6 -5 -5 -5 -5 -5 -5 -6 -6 -5 -5
-4 -5 -7 -8 -7 -7 -7 -7 -7 -7 -7 -8 -7 -7 -4 -6 -6 -5 -5 -5 -5 -5 -5 -5 -5 -5 -5 -5 -5 -5 -5 -5 -5 -5 -6 -6 -5 -6 -6 -5 -5 -5 -5 -5 -5 -5 -5 -5 -5
-4 -6 -6 -8 -8 -7 -7 -7 -7 -6 -6 -7 -7 -7 -6 -5 -6 -5 -5 -5 -5 -5 -5 -5 -5 -5 -5 -5 -5 -5 -5 -5 -6 -6 -6 -5 -5 -6 -6 -6 -6 -5 -5 -5 -5 -5 -5 -5 -5
-6 -6 -7 -7 -8 -8 -7 -7 -7 -7 -5 -6 -7 -7 -7 -5 -6 -6 -5 -5 -5 -5 -5 -4 -4 -4 -5 -5 -5 -4 -5 -5 -5 -5 -5 -5 -5 -5 -6 -6 -6 -6 -5 -5 -5 -5 -6 -6 -5
-6 -6 -7 -7 -6 -5 -7 -8 -7 -6 -6 -7 -6 -7 -7 -7 -5 -6 -5 -5 -4 -4 -5 -5 -4 -4 -5 -5 -5 -4 -4 -5 -5 -4 -5 -5 -5 -5 -5 -6 -6 -6 -6 -5 -5 -5 -5 -6 -6
-5 -5 -4 -4 -6 -6 -7 -5 -4 -6 -7 -7 -7 -6 -6 -7 -6 -5 -5 -4 -4 -4 -4 -5 -5 -4 -4 -4 -4 -4 -4 -4 -4 -4 -4 -4 -4 -5 -5 -5 -5 -5 -6 -6 -5 -5 -5 -6 -6
-5 -4 -5 -7 -8 -7 -7 -6 -6 -6 -6 -7 -7 -7 -7 -7 -7 -5 -5 -5 -4 -4 -4 -5 -5 -5 -5 -5 -4 -4 -4 -4 -4 -4 -4 -4 -4 -5 -5 -5 -5 -5 -6 -6 -6 -6 -6 -6 -6
-5 -5 -6 -7 -7 -7 -6 -6 -5 -6 -6 -6 -7 -7 -7 -7 -7 -5 -5 -4 -5 -4 -5 -5 -5 -4 -4 -4 -4 -3 -4 -4 -4 -4 -5 -5 -5 -5 -5 -6 -6 -6 -6 -7 -7 -6 -6 -6 -6
-5 -7 -7 -6 -6 -7 -6 -5 -5 -5 -5 -6 -6 -6 -6 -7 -7 -5 -6 -5 -5 -5 -4 -4 -4 -4 -4 -4 -4 -4 -4 -4 -4 -5 -5 -6 -6 -6 -6 -6 -6 -6 -6 -7 -7 -7 -7 -7 -7
-6 -5 -5 -5 -5 -6 -6 -5 -5 -5 -6 -6 -6 -7 -6 -7 -7 -6 -5 -5 -5 -5 -5 -4 -4 -4 -4 -4 -4 -4 -4 -4 -5 -5 -5 -5 -5 -6 -6 -6 -6 -6 -6 -6 -7 -7 -7 -7 -7
Height
5878 5878 5878 5878 5882 5879 5879 5880 5881 5880 5883 5882 5883 5883 5884 5884 5884 5888 5886 5888 5890 5890 5891 5892 5892 5892 5893 5894 5895 5896 5896 5897 5898 5899 5899 5900 5901 5902 5904 5905 5905 5905 5906 5906 5906 5906 5906 5906 5906
5879 5879 5881 5880 5880 5880 5879 5879 5879 5881 5881 5883 5884 5885 5885 5886 5887 5885 5888 5890 5891 5891 5892 5892 5893 5894 5895 5896 5897 5898 5898 5899 5900 5901 5902 5902 5903 5905 5906 5907 5907 5907 5908 5908 5908 5908 5907 5907 5907
5880 5881 5882 5881 5881 5880 5882 5880 5881 5883 5883 5885 5886 5886 5887 5888 5889 5889 5890 5892 5892 5893 5893 5893 5894 5896 5896 5898 5898 5900 5900 5902 5903 5903 5904 5904 5905 5906 5908 5908 5908 5909 5910 5910 5909 5909 5908 5908 5907
5881 5881 5883 5884 5883 5883 5884 5882 5882 5884 5885 5887 5887 5888 5888 5889 5889 5890 5892 5893 5893 5893 5894 5894 5896 5897 5898 5899 5900 5902 5903 5904 5905 5905 5906 5907 5908 5909 5909 5910 5911 5911 5912 5912 5912 5911 5910 5909 5908
5880 5880 5882 5878 5879 5884 5886 5885 5883 5884 5887 5887 5889 5889 5889 5890 5890 5891 5893 5893 5894 5894 5895 5896 5897 5898 5899 5901 5903 5904 5905 5906 5907 5908 5909 5910 5911 5912 5912 5913 5914 5914 5914 5914 5914 5913 5913 5912 5911
5881 5880 5877 5877 5885 5889 5888 5885 5885 5883 5886 5888 5889 5890 5891 5891 5892 5894 5894 5894 5895 5895 5896 5897 5899 5899 5901 5904 5905 5906 5907 5908 5909 5910 5911 5913 5914 5915 5915 5916 5916 5916 5917 5917 5917 5916 5915 5915 5913
5879 5868 5871 5880 5884 5890 5888 5887 5885 5884 5885 5888 5889 5890 5892 5892 5893 5895 5895 5895 5896 5896 5897 5899 5900 5901 5903 5905 5907 5908 5909 5910 5910 5911 5911 5909 5912 5916 5918 5919 5919 5919 5920 5920 5919 5918 5917 5916 5915
5880 5877 5876 5874 5881 5887 5887 5885 5884 5883 5886 5887 5888 5889 5892 5893 5894 5895 5896 5896 5896 5897 5898 5899 5901 5902 5905 5907 5909 5910 5911 5911 5914 5914 5916 5918 5917 5916 5921 5922 5923 5923 5923 5922 5922 5921 5921 5920 5919
5880 5879 5880 5875 5879 5887 5884 5885 5884 5885 5885 5886 5888 5889 5891 5892 5894 5895 5895 5896 5897 5897 5899 5900 5902 5903 5906 5908 5910 5911 5912 5913 5917 5913 5917 5922 5923 5920 5923 5926 5927 5926 5926 5925 5924 5924 5923 5922 5921
5880 5880 5882 5878 5879 5884 5882 5884 5885 5886 5885 5885 5887 5889 5891 5892 5894 5894 5895 5896 5897 5898 5899 5901 5903 5905 5907 5909 5912 5913 5913 5917 5917 5920 5921 5929 5921 5918 5921 5925 5930 5930 5929 5928 5927 5927 5926 5926 5925
5878 5883 5884 5879 5882 5879 5881 5878 5883 5884 5884 5884 5886 5888 5891 5892 5894 5895 5896 5897 5898 5899 5900 5902 5904 5906 5909 5911 5914 5915 5916 5919 5919 5920 5899 5917 5918 5923 5928 5925 5926 5932 5932 5931 5930 5928 5927 5927 5926
5876 5880 5881 5876 5880 5882 5882 5874 5883 5884 5882 5883 5886 5888 5889 5892 5893 5895 5896 5897 5899 5901 5902 5903 5905 5907 5910 5913 5915 5917 5919 5921 5920 5926 5926 5925 5924 5928 5931 5933 5925 5930 5934 5933 5932 5929 5929 5929 5926
5873 5878 5879 5881 5883 5882 5884 5869 5884 5882 5882 5884 5885 5886 5888 5890 5892 5894 5896 5898 5899 5901 5903 5905 5907 5909 5911 5914 5917 5919 5921 5923 5925 5924 5924 5928 5929 5932 5929 5931 5930 5932 5935 5934 5932 5931 5931 5930 5929
5872 5875 5879 5884 5883 5888 5885 5883 5886 5882 5882 5885 5883 5884 5887 5889 5891 5893 5895 5897 5899 5902 5904 5906 5909 5911 5913 5916 5918 5921 5923 5925 5928 5930 5931 5934 5933 5936 5936 5933 5933 5936 5937 5935 5935 5934 5933 5931 5929
5869 5873 5875 5879 5882 5885 5887 5887 5886 5882 5878 5883 5883 5883 5883 5885 5890 5891 5893 5896 5898 5902 5904 5907 5910 5912 5914 5917 5920 5922 5925 5928 5929 5931 5933 5935 5936 5937 5938 5938 5939 5938 5938 5938 5937 5936 5934 5932 5929
5862 5867 5871 5875 5878 5882 5884 5888 5882 5878 5875 5881 5882 5882 5883 5884 5885 5889 5892 5895 5898 5901 5905 5908 5910 5913 5915 5917 5920 5923 5926 5929 5931 5933 5935 5936 5937 5939 5940 5939 5939 5938 5939 5939 5938 5937 5936 5933 5930
5856 5860 5866 5873 5875 5879 5882 5883 5875 5875 5865 5879 5883 5882 5882 5883 5885 5887 5890 5893 5898 5901 5904 5908 5910 5913 5915 5918 5921 5924 5927 5930 5932 5934 5936 5937 5938 5939 5941 5940 5937 5939 5940 5940 5939 5938 5936 5935 5933
5852 5856 5861 5867 5874 5875 5879 5880 5877 5872 5861 5878 5880 5880 5882 5882 5884 5887 5889 5892 5896 5901 5904 5907 5910 5913 5916 5918 5921 5924 5927 5930 5932 5935 5936 5937 5939 5940 5942 5942 5941 5941 5940 5940 5939 5938 5937 5936 5934
5850 5853 5858 5865 5871 5873 5876 5877 5876 5873 5870 5871 5872 5882 5878 5882 5882 5886 5888 5892 5895 5899 5904 5907 5910 5913 5916 5919 5921 5925 5928 5931 5934 5935 5937 5939 5941 5942 5943 5943 5943 5942 5941 5941 5939 5939 5938 5936 5935
5844 5848 5855 5862 5869 5871 5873 5877 5873 5873 5868 5861 5871 5870 5877 5882 5882 5885 5888 5892 5895 5898 5902 5906 5909 5913 5916 5918 5922 5925 5929 5932 5934 5936 5938 5939 5941 5942 5943 5945 5944 5944 5943 5942 5941 5939 5939 5940 5938
5836 5842 5851 5862 5866 5865 5870 5871 5875 5870 5866 5865 5849 5872 5880 5880 5882 5884 5888 5891 5895 5899 5902 5905 5908 5912 5915 5918 5921 5925 5928 5931 5934 5936 5938 5940 5941 5942 5944 5944 5945 5945 5943 5943 5941 5940 5941 5940 5939
5831 5839 5845 5855 5864 5865 5865 5866 5867 5874 5874 5873 5871 5874 5877 5878 5880 5883 5887 5891 5895 5898 5901 5904 5907 5910 5913 5917 5920 5924 5926 5930 5934 5937 5939 5940 5941 5942 5944 5945 5944 5945 5944 5943 5942 5941 5941 5941 5941
5830 5834 5840 5845 5853 5860 5863 5865 5868 5870 5872 5877 5874 5876 5873 5876 5878 5882 5885 5889 5893 5897 5901 5904 5907 5910 5913 5917 5919 5922 5926 5930 5933 5936 5937 5939 5941 5943 5944 5944 5945 5944 5945 5943 5943 5942 5942 5942 5941
5825 5828 5834 5840 5844 5844 5852 5857 5859 5862 5867 5873 5873 5874 5871 5872 5876 5880 5884 5887 5892 5896 5901 5905 5908 5910 5913 5916 5919 5922 5926 5929 5932 5935 5937 5939 5940 5942 5943 5943 5944 5945 5944 5943 5943 5943 5943 5943 5942
5814 5821 5826 5829 5828 5831 5846 5849 5854 5864 5866 5867 5870 5870 5872 5871 5874 5878 5882 5887 5891 5896 5900 5904 5907 5911 5914 5916 5919 5922 5925 5929 5932 5934 5936 5938 5939 5941 5942 5944 5945 5945 5944 5943 5943 5944 5943 5943 5943
5807 5813 5815 5818 5824 5832 5840 5839 5846 5857 5864 5864 5868 5866 5870 5873 5871 5876 5881 5885 5889 5894 5898 5902 5905 5909 5913 5916 5919 5922 5925 5928 5931 5933 5934 5936 5937 5939 5940 5942 5943 5944 5944 5942 5942 5943 5943 5942 5942
5802 5803 5818 5822 5829 5833 5836 5839 5844 5850 5854 5860 5868 5869 5869 5871 5869 5873 5878 5883 5887 5891 5896 5900 5903 5907 5911 5914 5918 5922 5925 5928 5930 5931 5933 5934 5935 5936 5939 5939 5940 5941 5942 5941 5941 5941 5940 5940 5941
5794 5807 5807 5812 5820 5827 5833 5836 5837 5841 5845 5852 5857 5864 5866 5868 5868 5870 5875 5880 5884 5888 5892 5897 5901 5905 5909 5912 5917 5920 5923 5926 5928 5929 5930 5931 5931 5932 5936 5936 5936 5937 5938 5938 5938 5938 5938 5938 5939
5785 5790 5798 5811 5815 5822 5831 5836 5839 5836 5840 5844 5848 5855 5860 5866 5865 5867 5871 5876 5881 5884 5889 5894 5898 5902 5907 5911 5915 5918 5920 5923 5924 5925 5925 5926 5926 5927 5929 5931 5933 5934 5934 5934 5934 5936 5936 5937 5938
5778 5787 5793 5797 5806 5814 5826 5835 5830 5833 5834 5838 5843 5848 5853 5860 5862 5864 5868 5873 5876 5881 5886 5891 5895 5900 5904 5907 5911 5914 5917 5919 5921 5921 5921 5922 5923 5924 5925 5927 5928 5929 5929 5929 5931 5932 5933 5934 5935
Wind_Speed
11 11 10 9 5 7 6 2 11 6 5 4 8 5 5 5 1 3 18 18 13 15 15 14 13 12 13 13 13 12 12 12 12 12 12 14 14 14 14 14 14 14 13 11 10 10 9 9 8
11 11 9 7 5 8 7 7 7 6 9 5 5 5 2 1 2 17 22 10 9 11 13 13 12 12 14 13 12 11 11 11 11 11 12 13 12 13 11 11 11 10 9 8 8 9 9 9 7
7 9 9 5 6 16 2 1 5 7 8 5 4 2 1 2 2 7 8 9 7 9 11 12 12 12 13 12 12 10 10 11 10 10 12 12 12 10 10 9 8 8 8 7 8 10 11 11 7
8 7 5 2 9 6 6 2 4 6 7 5 4 1 1 1 3 8 9 5 5 7 8 10 12 12 12 12 12 10 10 11 11 11 11 12 11 10 9 9 8 8 8 9 11 12 12 14 14
7 6 5 7 8 17 14 1 5 4 3 4 3 4 2 0 7 10 7 6 4 4 5 8 12 12 12 11 11 10 11 11 12 12 11 11 11 10 9 9 9 10 12 13 13 13 14 16 18
8 2 3 24 15 11 12 10 8 8 7 7 7 5 4 5 7 7 7 4 3 5 5 9 11 11 11 11 11 11 11 12 13 13 12 12 12 12 10 11 11 13 14 13 14 14 14 16 19
9 6 8 14 12 6 10 7 6 9 11 10 11 7 7 7 8 8 6 6 6 5 7 9 10 11 10 11 12 12 12 12 12 13 13 16 18 15 14 16 16 14 13 12 13 14 15 16 17
11 6 7 17 15 13 8 7 13 12 10 12 10 10 8 8 10 9 6 5 8 6 8 10 9 10 10 12 12 13 13 13 14 12 14 19 21 21 17 15 14 13 13 13 13 14 15 15 17
12 8 7 15 16 8 10 10 9 7 11 12 12 12 9 8 10 9 6 5 7 8 9 8 9 11 12 13 13 13 13 14 15 13 19 21 19 19 16 13 13 13 14 13 13 14 13 14 15
12 11 8 11 7 10 3 10 11 10 10 12 11 12 10 9 10 11 8 5 9 11 11 10 10 12 14 13 15 15 15 16 15 16 16 17 19 16 15 14 12 12 12 13 13 12 11 12 12
15 9 7 1 1 4 18 5 14 10 12 11 13 13 12 11 11 10 8 5 8 11 13 11 11 14 15 15 16 15 16 16 15 15 12 12 12 13 10 14 13 10 11 10 10 11 10 11 11
19 11 13 11 6 6 12 17 15 9 7 10 13 14 15 13 13 12 11 9 9 12 13 13 13 16 16 16 16 17 18 16 10 11 12 13 7 9 2 11 12 10 9 11 10 12 10 11 12
20 19 13 15 6 13 15 13 6 9 9 5 8 13 16 15 14 15 14 10 12 15 14 14 16 16 17 17 17 18 17 15 12 8 9 11 5 6 6 6 12 9 6 7 10 10 11 11 13
21 18 20 18 7 16 11 16 10 10 10 8 5 11 15 18 18 16 14 12 14 16 16 16 18 15 16 17 18 18 16 14 12 10 9 8 5 7 5 8 7 7 5 7 9 11 11 12 10
25 22 26 24 22 20 9 22 10 16 11 10 7 8 13 16 18 20 17 15 16 18 17 17 16 16 17 16 17 16 16 13 12 8 6 6 4 4 6 4 4 3 5 7 8 10 10 11 10
30 29 26 23 22 20 15 11 19 24 12 8 8 9 11 14 17 17 17 17 18 20 18 18 16 17 17 17 17 16 15 13 12 9 7 6 4 3 4 4 3 4 5 6 8 9 9 12 14
34 32 30 20 23 20 18 22 19 15 24 10 10 10 10 12 15 15 15 17 19 21 20 18 18 17 17 18 18 17 15 12 10 8 7 5 4 3 3 3 2 4 6 7 8 9 7 9 12
32 34 28 25 23 22 19 19 21 26 20 11 12 9 11 12 14 15 17 20 21 21 21 20 20 19 18 18 18 17 15 13 10 7 6 5 3 3 3 1 4 4 6 7 8 8 3 6 10
28 28 28 23 25 26 19 24 24 25 27 9 23 16 9 14 13 15 17 20 23 22 20 20 20 20 18 18 17 16 15 12 9 8 7 6 5 3 1 2 3 5 7 8 8 8 7 11 12
32 27 24 22 20 27 25 29 29 24 17 21 16 11 12 14 10 15 17 19 23 23 20 19 20 20 20 19 18 16 13 12 10 10 9 7 4 3 3 3 5 4 5 5 7 8 8 8 10
36 34 28 23 23 30 24 32 27 25 25 25 28 18 14 11 11 15 17 19 23 22 21 20 21 22 22 21 18 15 14 13 14 12 9 7 6 5 3 1 3 3 5 3 5 6 8 9 9
40 33 33 29 25 29 28 28 27 31 24 25 21 29 18 13 12 15 16 17 21 23 23 23 23 25 24 21 19 18 18 16 12 9 9 10 9 5 2 2 3 3 3 2 3 4 6 6 5
36 35 37 37 33 30 33 33 31 30 26 21 31 30 25 11 14 16 16 19 23 24 23 22 24 24 24 23 22 21 17 15 12 11 12 10 7 5 4 4 4 5 3 3 3 2 3 2 3
28 34 34 39 32 41 38 31 29 33 25 20 24 18 20 14 16 16 18 21 22 24 23 21 21 23 24 24 22 19 17 15 14 14 13 10 8 6 6 6 5 5 5 5 5 3 2 1 2
35 38 39 41 49 47 38 38 34 20 26 28 15 22 21 26 15 19 18 19 22 22 21 19 20 21 23 23 21 19 17 15 14 13 11 10 8 8 9 7 7 8 8 7 6 6 3 3 2
40 38 45 48 45 39 35 37 34 30 25 24 18 26 24 30 26 16 19 19 21 23 21 20 19 21 22 21 20 18 15 14 12 11 11 10 10 10 11 9 9 8 10 10 8 8 7 5 5
42 44 32 33 25 26 29 25 25 33 39 34 30 29 31 34 30 15 19 19 21 21 21 21 21 20 20 21 21 17 15 13 14 15 14 14 14 13 12 13 12 11 10 12 10 9 10 8 8
45 34 40 38 34 28 19 24 17 22 34 42 39 30 30 31 32 17 18 21 20 21 23 23 23 21 21 20 17 15 13 12 13 14 15 17 18 18 13 15 15 14 12 11 11 11 12 10 9
48 44 41 35 35 27 18 19 18 24 23 23 34 41 40 33 34 24 16 21 21 23 23 24 23 21 18 17 17 15 15 14 13 14 15 17 18 17 15 15 15 16 15 13 13 11 12 11 11
52 48 44 43 40 35 22 18 26 20 26 24 28 35 32 34 34 32 18 18 25 24 23 22 22 21 20 20 19 17 15 12 9 9 9 8 8 10 12 12 16 17 19 17 15 13 11 13 12
Wind_Direction
95 102 115 116 129 108 53 117 257 210 188 206 190 156 146 90 17 111 149 107 101 103 111 110 111 112 117 123 124 123 119 119 116 116 125 132 129 124 116 114 111 107 102 96 88 81 69 59 56
104 123 117 146 55 86 117 232 209 184 189 175 144 182 166 145 37 128 148 127 85 99 109 105 109 117 122 124 117 115 123 120 120 120 123 131 130 123 123 117 108 100 92 76 68 61 49 34 30
116 130 150 139 130 100 34 214 173 185 197 182 174 121 34 238 233 166 156 103 103 99 102 103 113 123 119 118 113 120 128 123 120 120 118 120 119 123 118 108 100 96 89 78 63 53 49 39 13
133 133 136 161 60 38 323 180 174 184 194 192 218 259 353 307 192 146 143 141 98 85 92 96 116 125 118 115 117 129 130 127 125 120 117 112 112 107 109 106 102 98 86 73 72 70 61 54 48
149 146 116 318 122 28 276 187 235 246 238 247 232 245 235 256 162 168 143 142 99 86 93 109 123 125 118 118 126 133 131 129 121 113 110 103 103 106 101 101 104 97 89 79 70 65 62 59 61
138 131 58 82 56 286 287 262 224 252 266 264 252 260 219 172 164 170 150 146 135 120 122 125 129 125 124 131 134 135 132 130 117 107 101 99 99 101 104 103 99 97 91 78 76 70 66 63 64
156 271 14 67 112 294 275 181 271 264 257 258 255 256 226 177 160 164 163 159 147 138 138 136 135 131 135 140 141 137 135 132 122 115 121 119 112 106 104 103 102 97 90 80 70 67 62 61 64
189 207 169 127 114 248 298 248 221 249 262 249 249 239 223 201 176 183 168 161 147 150 150 143 144 141 144 148 148 140 135 133 118 127 117 111 110 108 103 97 93 90 86 82 76 70 64 61 63
191 217 282 154 150 355 298 281 236 249 245 245 243 224 213 228 205 202 177 176 161 164 153 153 154 149 151 154 153 144 138 126 127 143 126 113 107 103 98 92 90 85 81 81 78 73 65 58 61
195 217 165 172 163 230 272 317 286 270 251 255 250 233 218 211 222 214 207 188 179 177 158 155 159 151 154 157 148 142 134 120 137 119 116 113 107 112 111 99 79 76 71 67 62 53 58 56 56
209 191 103 100 233 172 251 178 294 279 261 258 241 239 230 222 228 230 230 229 205 186 164 159 158 155 161 155 144 139 133 130 145 147 154 80 102 103 118 104 91 66 60 62 54 55 35 38 34
213 196 212 171 282 281 283 137 275 286 274 262 256 239 234 229 232 228 225 230 197 193 173 163 160 158 162 156 144 140 135 135 142 139 122 112 97 127 360 58 94 62 37 36 40 31 28 24 19
227 199 232 287 188 260 252 161 203 285 300 313 275 258 246 236 237 242 244 243 207 189 178 166 158 156 160 150 146 146 144 140 136 128 108 115 126 84 53 101 63 69 49 34 30 35 27 18 15
223 233 211 231 217 256 270 289 280 231 318 300 299 282 255 244 235 228 233 231 204 190 182 174 172 167 166 154 150 146 148 143 142 141 137 129 132 108 79 63 30 33 31 45 39 32 16 12 3
214 214 223 225 216 226 214 232 230 249 248 301 295 287 282 266 240 235 228 221 199 192 186 181 178 173 165 157 155 157 157 153 148 148 146 140 120 95 88 36 67 40 35 42 38 18 9 0 8
215 222 236 230 224 225 219 246 242 260 300 301 314 309 285 261 254 236 226 207 199 191 187 185 181 176 167 166 163 160 159 156 159 161 164 160 145 110 84 75 82 56 47 27 24 16 27 41 46
221 224 226 214 237 220 221 204 253 233 150 291 308 314 297 264 249 238 228 203 201 193 188 185 184 180 173 168 166 168 167 167 168 168 172 170 156 122 84 85 148 20 34 13 26 27 63 39 37
224 229 225 213 232 246 219 234 222 266 228 245 312 294 311 289 249 238 218 203 197 197 190 187 185 186 179 171 170 172 173 177 177 178 185 182 181 147 109 35 23 349 18 17 33 42 82 20 25
224 226 225 222 198 233 238 244 259 269 195 199 283 256 324 303 249 227 215 204 196 192 194 188 186 190 184 178 179 180 181 180 184 186 191 194 199 208 170 337 357 357 14 16 26 46 37 27 20
229 219 218 203 222 232 214 228 253 263 262 206 251 237 309 301 242 221 213 206 198 193 192 191 188 190 190 187 186 188 185 187 192 194 195 210 214 230 268 343 351 29 17 25 24 39 40 43 44
217 217 196 219 202 248 248 220 228 261 266 273 200 281 275 288 242 221 214 208 200 196 192 190 188 193 192 193 190 195 194 201 201 197 201 212 222 234 256 344 349 16 23 23 23 37 40 33 38
218 212 194 190 216 218 237 240 243 237 244 277 289 279 282 268 247 221 218 213 201 200 197 193 190 194 194 192 191 198 199 200 199 193 205 215 217 215 251 311 343 5 23 23 11 44 53 36 25
218 212 208 187 208 215 225 228 233 240 239 243 259 272 275 238 242 225 213 212 204 206 203 200 198 196 196 193 195 202 205 204 202 208 216 215 213 213 244 295 345 348 9 326 309 5 43 35 24
212 209 214 210 211 218 207 229 241 222 241 255 268 271 272 259 231 236 218 213 210 209 210 210 206 202 200 200 199 207 214 214 214 220 224 219 218 232 263 289 320 342 325 309 291 310 357 326 311
211 206 208 218 220 224 211 215 221 218 243 253 269 254 246 282 250 232 222 211 212 213 214 215 212 210 209 207 205 208 216 221 225 233 237 238 243 251 262 275 307 326 320 307 293 296 314 311 290
217 212 215 219 223 231 217 233 233 192 197 253 256 245 224 266 265 235 228 213 210 214 216 211 210 212 213 217 219 218 220 221 225 232 240 252 262 263 270 271 283 311 322 309 294 285 281 282 285
218 219 216 219 228 230 238 248 234 216 199 199 212 228 241 253 259 247 241 217 215 217 217 215 210 209 210 214 219 218 215 216 225 236 247 258 259 256 259 271 271 273 290 313 297 276 269 265 278
224 222 211 210 210 221 236 244 267 241 221 211 209 209 223 236 251 246 237 227 217 220 220 217 214 212 212 217 218 217 222 235 249 259 261 260 265 267 262 268 270 273 276 291 306 285 268 269 271
215 213 219 220 218 206 215 242 249 260 257 249 221 217 217 219 243 254 249 238 223 221 218 217 213 215 215 217 223 230 239 248 259 270 270 268 268 270 269 263 262 268 272 278 286 288 277 269 268
218 220 223 217 212 201 197 211 212 226 245 249 222 219 221 204 228 247 253 242 231 222 222 220 215 211 210 219 225 234 244 244 267 263 263 275 284 283 278 267 272 270 275 281 284 286 275 265 260